H1 CPF 2 NER 2023 5 28 9 148 01 glonass131 H2 1301901 9131 39155 2023 5 28 0 0 0 2023 5 31 23 45 0 900 1 1 0 0 0 1 H9 10 0 60092 0.00000 0 -18836782.808 -16770980.125 -3980326.135 10 0 60092 900.00000 0 -19167078.566 -16860537.526 -782512.458 10 0 60092 1800.00000 0 -19201836.526 -16671866.225 2430456.127 10 0 60092 2700.00000 0 -18907120.558 -16249113.477 5596420.897 10 0 60092 3600.00000 0 -18260206.164 -15643646.270 8654210.183 10 0 60092 4500.00000 0 -17250702.979 -14911720.543 11544804.248 10 0 60092 5400.00000 0 -15881176.627 -14111967.127 14212454.140 10 0 60092 6300.00000 0 -14167245.043 -13302799.280 16605734.742 10 0 60092 7200.00000 0 -12137145.767 -12539849.210 18678513.728 10 0 60092 8100.00000 0 -9830791.996 -11873539.264 20390819.957 10 0 60092 9000.00000 0 -7298355.591 -11346887.502 21709596.666 10 0 60092 9900.00000 0 -4598434.110 -10993637.653 22609326.766 10 0 60092 10800.00000 0 -1795875.361 -10836790.217 23072519.634 10 0 60092 11700.00000 0 1040653.370 -10887595.328 23090050.865 10 0 60092 12600.00000 0 3841253.924 -11145049.451 22661348.561 10 0 60092 13500.00000 0 6537439.703 -11595917.829 21794422.020 10 0 60092 14400.00000 0 9064725.271 -12215283.400 20505730.929 10 0 60092 15300.00000 0 11365057.979 -12967601.518 18819895.682 10 0 60092 16200.00000 0 13388992.103 -13808219.006 16769251.977 10 0 60092 17100.00000 0 15097515.644 -14685296.613 14393255.605 10 0 60092 18000.00000 0 16463453.327 -15542056.671 11737746.226 10 0 60092 18900.00000 0 17472386.138 -16319263.352 8854081.861 10 0 60092 19800.00000 0 18123047.249 -16957832.174 5798158.786 10 0 60092 20700.00000 0 18427175.792 -17401458.774 2629334.437 10 0 60092 21600.00000 0 18408832.712 -17599154.986 -590726.447 10 0 60092 22500.00000 0 18103205.933 -17507583.073 -3799259.877 10 0 60092 23400.00000 0 17554954.274 -17093086.640 -6933640.376 10 0 60092 24300.00000 0 16816159.825 -16333329.025 -9932622.749 10 0 60092 25200.00000 0 15943975.997 -15218466.411 -12737561.504 10 0 60092 26100.00000 0 14998072.131 -13751802.729 -15293581.702 10 0 60092 27000.00000 0 14037984.858 -11949895.871 -17550675.843 10 0 60092 27900.00000 0 13120490.707 -9842108.525 -19464703.070 10 0 60092 28800.00000 0 12297113.619 -7469621.280 -20998269.118 10 0 60092 29700.00000 0 11611875.125 -4883949.069 -22121468.352 10 0 60092 30600.00000 0 11099384.051 -2145023.543 -22812472.492 10 0 60092 31500.00000 0 10783347.601 681077.207 -23057954.221 10 0 60092 32400.00000 0 10675566.975 3524655.262 -22853337.745 10 0 60092 33300.00000 0 10775459.343 6315068.781 -22202872.252 10 0 60092 34200.00000 0 11070124.995 8983444.220 -21119528.142 10 0 60092 35100.00000 0 11534954.857 11465310.932 -19624719.678 10 0 60092 36000.00000 0 12134750.317 13703048.177 -17747861.268 10 0 60092 36900.00000 0 12825305.561 15648043.152 -15525767.989 10 0 60092 37800.00000 0 13555383.145 17262471.547 -13001913.908 10 0 60092 38700.00000 0 14268997.290 18520628.641 -10225564.410 10 0 60092 39600.00000 0 14907906.898 19409758.290 -7250801.021 10 0 60092 40500.00000 0 15414212.094 19930348.546 -4135458.923 10 0 60092 41400.00000 0 15732944.496 20095885.171 -939998.694 10 0 60092 42300.00000 0 15814542.377 19932076.768 2273665.330 10 0 60092 43200.00000 0 15617107.445 19475587.117 5443357.398 10 0 60092 44100.00000 0 15108349.614 18772330.252 8507830.823 10 0 60092 45000.00000 0 14267139.670 17875401.381 11407934.525 10 0 60092 45900.00000 0 13084606.138 16842731.058 14087734.557 10 0 60092 46800.00000 0 11564731.704 15734560.711 16495570.802 10 0 60092 47700.00000 0 9724424.893 14610844.222 18585030.451 10 0 60092 48600.00000 0 7593064.106 13528682.684 20315821.713 10 0 60092 49500.00000 0 5211532.143 12539897.568 21654533.007 10 0 60092 50400.00000 0 2630779.832 11688841.667 22575264.845 10 0 60092 51300.00000 0 -90023.967 11010537.337 23060123.694 10 0 60092 52200.00000 0 -2885682.203 10529218.356 23099569.147 10 0 60092 53100.00000 0 -5687411.796 10257335.578 22692607.910 10 0 60092 54000.00000 0 -8425440.317 10195067.947 21846830.305 10 0 60092 54900.00000 0 -11031652.716 10330360.251 20578287.324 10 0 60092 55800.00000 0 -13442180.945 10639487.652 18911208.682 10 0 60092 56700.00000 0 -15599830.844 11088125.564 16877564.939 10 0 60092 57600.00000 0 -17456246.417 11632882.506 14516479.443 10 0 60092 58500.00000 0 -18973721.345 12223234.000 11873498.750 10 0 60092 59400.00000 0 -20126581.338 12803778.225 8999733.103 10 0 60092 60300.00000 0 -20902077.929 13316719.845 5950881.523 10 0 60092 61200.00000 0 -21300754.265 13704477.693 2786158.954 10 0 60092 62100.00000 0 -21336265.328 13912305.679 -432854.397 10 0 60092 63000.00000 0 -21034658.207 13890814.564 -3643419.087 10 0 60092 63900.00000 0 -20433141.190 13598285.482 -6782873.393 10 0 60092 64800.00000 0 -19578392.828 13002674.199 -9789875.546 10 0 60092 65700.00000 0 -18524482.363 12083217.816 -12605624.900 10 0 60092 66600.00000 0 -17330490.269 10831572.475 -15175035.744 10 0 60092 67500.00000 0 -16057931.060 9252430.750 -17447838.372 10 0 60092 68400.00000 0 -14768089.370 7363590.047 -19379583.554 10 0 60092 69300.00000 0 -13519384.268 5195467.227 -20932528.732 10 0 60092 70200.00000 0 -12364875.388 2790078.910 -22076387.162 10 0 60092 71100.00000 0 -11350018.086 199530.059 -22788924.405 10 0 60092 72000.00000 0 -10510763.680 -2515925.119 -23056390.195 10 0 60092 72900.00000 0 -9872085.375 -5290167.696 -22873777.574 10 0 60092 73800.00000 0 -9446991.655 -8053747.039 -22244905.023 10 0 60092 74700.00000 0 -9236067.523 -10736555.117 -21182321.297 10 0 60092 75600.00000 0 -9227560.874 -13270529.344 -19707036.413 10 0 60092 76500.00000 0 -9398007.853 -15592270.655 -17848085.857 10 0 60092 77400.00000 0 -9713367.906 -17645467.626 -15641938.442 10 0 60092 78300.00000 0 -10130617.740 -19383026.426 -13131761.253 10 0 60092 79200.00000 0 -10599734.193 -20768819.382 -10366557.750 10 0 60092 80100.00000 0 -11065980.059 -21778981.495 -7400197.430 10 0 60092 81000.00000 0 -11472394.734 -22402703.707 -4290357.153 10 0 60092 81900.00000 0 -11762383.596 -22642493.014 -1097395.613 10 0 60092 82800.00000 0 -11882296.707 -22513891.869 2116816.680 10 0 60092 83700.00000 0 -11783888.577 -22044671.752 5290089.239 10 0 60092 84600.00000 0 -11426556.389 -21273537.309 8361102.663 10 0 60092 85500.00000 0 -10779263.934 -20248397.257 11270576.839 10 0 60093 0.00000 0 -9822071.956 -19024275.668 13962394.892 10 0 60093 900.00000 0 -8547211.545 -17660950.508 16384664.421 10 0 60093 1800.00000 0 -6959657.859 -16220419.230 18490693.999 10 0 60093 2700.00000 0 -5077178.881 -14764293.688 20239873.122 10 0 60093 3600.00000 0 -2929857.893 -13351232.826 21598437.094 10 0 60093 4500.00000 0 -559107.865 -12034517.412 22540105.468 10 0 60093 5400.00000 0 1983783.304 -10859865.878 23046582.941 10 0 60093 6300.00000 0 4639519.020 -9863580.384 23107913.949 10 0 60093 7200.00000 0 7342997.536 -9071099.082 22722684.355 10 0 60093 8100.00000 0 10025764.848 -8496014.295 21898065.779 10 0 60093 9000.00000 0 12618618.626 -8139597.743 20649700.516 10 0 60093 9900.00000 0 15054258.049 -7990853.633 19001427.345 10 0 60093 10800.00000 0 17269871.827 -8027098.983 16984851.157 10 0 60093 11700.00000 0 19209558.204 -8215048.949 14638762.022 10 0 60093 12600.00000 0 20826476.583 -8512363.842 12008412.223 10 0 60093 13500.00000 0 22084640.450 -8869594.834 9144662.695 10 0 60093 14400.00000 0 22960275.305 -9232448.049 6103013.276 10 0 60093 15300.00000 0 23442682.641 -9544272.346 2942534.113 10 0 60093 16200.00000 0 23534571.422 -9748665.668 -275281.769 10 0 60093 17100.00000 0 23251840.747 -9792088.665 -3487722.382 10 0 60093 18000.00000 0 22622820.846 -9626372.975 -6632092.843 10 0 60093 18900.00000 0 21687002.962 -9211015.185 -9646957.961 10 0 60093 19800.00000 0 20493311.071 -8515156.006 -12473365.040 10 0 60093 20700.00000 0 19097988.604 -7519157.410 -15056020.607 10 0 60093 21600.00000 0 17562190.413 -6215707.565 -17344395.588 10 0 60093 22500.00000 0 15949383.328 -4610403.920 -19293735.001 10 0 60093 23400.00000 0 14322667.104 -2721787.474 -20865950.392 10 0 60093 24300.00000 0 12742130.974 -580825.278 -22030376.017 10 0 60093 25200.00000 0 11262359.236 1770137.783 -22764373.074 10 0 60093 26100.00000 0 9930192.504 4278913.726 -23053769.800 10 0 60093 27000.00000 0 8782839.661 6885427.635 -22893129.127 10 0 60093 27900.00000 0 7846419.921 9524012.104 -22285839.480 10 0 60093 28800.00000 0 7134995.335 12125942.598 -21244028.183 10 0 60093 29700.00000 0 6650132.621 14622106.441 -19788300.788 10 0 60093 30600.00000 0 6381010.168 16945693.056 -17947313.199 10 0 60093 31500.00000 0 6305062.667 19034792.632 -15757186.867 10 0 60093 32400.00000 0 6389132.916 20834795.048 -13260780.361 10 0 60093 33300.00000 0 6591079.029 22300489.906 -10506833.262 10 0 60093 34200.00000 0 6861766.384 23397781.673 -7549000.677 10 0 60093 35100.00000 0 7147357.902 24104950.699 -4444798.429 10 0 60093 36000.00000 0 7391804.412 24413410.210 -1254480.312 10 0 60093 36900.00000 0 7539429.137 24327930.697 1960130.215 10 0 60093 37800.00000 0 7537497.240 23866325.316 5136831.267 10 0 60093 38700.00000 0 7338662.698 23058612.193 8214234.093 10 0 60093 39600.00000 0 6903190.615 21945690.788 11132932.828 10 0 60093 40500.00000 0 6200862.873 20577589.092 13836631.266 10 0 60093 41400.00000 0 5212488.515 19011355.428 16273206.686 10 0 60093 42300.00000 0 3930956.704 17308682.554 18395692.241 10 0 60093 43200.00000 0 2361788.853 15533362.088 20163161.131 10 0 60093 44100.00000 0 523166.816 13748673.524 21541497.673 10 0 60093 45000.00000 0 -1554564.878 12014814.436 22504042.237 10 0 60093 45900.00000 0 -3829903.683 10386476.451 23032099.150 10 0 60093 46800.00000 0 -6251661.332 8910665.607 23115298.675 10 0 60093 47700.00000 0 -8760845.595 7624855.973 22751806.323 10 0 60093 48600.00000 0 -11292876.834 6555552.120 21948374.998 10 0 60093 49500.00000 0 -13780050.820 5717319.837 20720237.734 10 0 60093 50400.00000 0 -16154148.736 5112325.795 19090841.245 10 0 60093 51300.00000 0 -18349088.551 4730406.420 17091423.083 10 0 60093 52200.00000 0 -20303509.362 4549664.665 14760437.884 10 0 60093 53100.00000 0 -21963181.825 4537571.628 12142841.086 10 0 60093 54000.00000 0 -23283143.969 4652528.678 9289241.420 10 0 60093 54900.00000 0 -24229471.980 4845826.091 6254936.434 10 0 60093 55800.00000 0 -24780609.839 5063916.703 3098848.257 10 0 60093 56700.00000 0 -24928199.619 5250908.948 -117620.518 10 0 60093 57600.00000 0 -24677374.906 5351173.258 -3331788.594 10 0 60093 58500.00000 0 -24046502.503 5311949.956 -6480931.088 10 0 60093 59400.00000 0 -23066381.292 5085845.848 -9503522.443 10 0 60093 60300.00000 0 -21778930.699 4633110.686 -12340460.836 10 0 60093 61200.00000 0 -20235423.610 3923593.711 -14936247.755 10 0 60093 62100.00000 0 -18494338.697 2938293.998 -17240097.213 10 0 60093 63000.00000 0 -16618923.851 1670435.843 -19206950.597 10 0 60093 63900.00000 0 -14674575.209 126021.092 -20798375.240 10 0 60093 64800.00000 0 -12726144.204 -1676166.828 -21983327.609 10 0 60093 65700.00000 0 -10835287.987 -3705108.464 -22738765.229 10 0 60093 66600.00000 0 -9057976.394 -5918620.827 -23050095.003 10 0 60093 67500.00000 0 -7442261.305 -8264911.318 -22911449.419 10 0 60093 68400.00000 0 -6026402.393 -10684546.930 -22325786.035 10 0 60093 69300.00000 0 -4837427.371 -13112754.846 -21304809.522 10 0 60093 70200.00000 0 -3890185.620 -15481956.732 -19868719.383 10 0 60093 71100.00000 0 -3186932.557 -17724429.462 -18045790.069 10 0 60093 72000.00000 0 -2717459.188 -19774980.174 -15871793.572 10 0 60093 72900.00000 0 -2459757.922 -21573523.550 -13389277.700 10 0 60093 73800.00000 0 -2381193.043 -23067454.027 -10646715.832 10 0 60093 74700.00000 0 -2440123.175 -24213714.866 -7697546.359 10 0 60093 75600.00000 0 -2587904.351 -24980479.376 -4599121.761 10 0 60093 76500.00000 0 -2771186.937 -25348376.328 -1411588.698 10 0 60093 77400.00000 0 -2934407.996 -25311210.951 1803278.589 10 0 60093 78300.00000 0 -3022373.273 -24876154.172 4983268.922 10 0 60093 79200.00000 0 -2982820.048 -24063394.796 8066926.246 10 0 60093 80100.00000 0 -2768853.654 -22905271.392 10994720.953 10 0 60093 81000.00000 0 -2341156.323 -21444921.768 13710179.225 10 0 60093 81900.00000 0 -1669876.957 -19734507.220 16160950.387 10 0 60093 82800.00000 0 -736123.862 -17833085.614 18299793.682 10 0 60093 83700.00000 0 467001.081 -15804221.045 20085467.622 10 0 60093 84600.00000 0 1933869.666 -13713427.978 21483506.930 10 0 60093 85500.00000 0 3646318.601 -11625554.025 22466873.962 10 0 60094 0.00000 0 5574166.099 -9602207.856 23016473.550 10 0 60094 900.00000 0 7676235.419 -7699335.524 23121522.511 10 0 60094 1800.00000 0 9901842.864 -5965046.338 22779766.317 10 0 60094 2700.00000 0 12192695.039 -4437773.264 21997539.276 10 0 60094 3600.00000 0 14485117.469 -3144845.964 20789665.049 10 0 60094 4500.00000 0 16712526.261 -2101534.477 19179197.953 10 0 60094 5400.00000 0 18808042.779 -1310604.056 17197007.639 10 0 60094 6300.00000 0 20707144.719 -762400.838 14881212.502 10 0 60094 7200.00000 0 22350244.330 -435466.391 12276470.062 10 0 60094 8100.00000 0 23685086.410 -297657.157 9433135.479 10 0 60094 9000.00000 0 24668864.998 -307723.449 6406302.321 10 0 60094 9900.00000 0 25269968.373 -417282.842 3254742.681 10 0 60094 10800.00000 0 25469276.741 -573105.384 39766.387 10 0 60094 11700.00000 0 25260955.267 -719613.883 -3175978.536 10 0 60094 12600.00000 0 24652706.266 -801492.447 -6329739.966 10 0 60094 13500.00000 0 23665467.360 -766290.880 -9359904.825 10 0 60094 14400.00000 0 22332566.372 -566911.921 -12207224.998 10 0 60094 15300.00000 0 20698367.379 -163872.811 -14815999.667 10 0 60094 16200.00000 0 18816464.730 472757.978 -17135188.538 10 0 60094 17100.00000 0 16747501.627 1361834.065 -19119431.790 10 0 60094 18000.00000 0 14556706.439 2510081.971 -20729954.786 10 0 60094 18900.00000 0 12311252.124 3911575.959 -21935338.246 10 0 60094 19800.00000 0 10077551.700 5547760.543 -22712137.853 10 0 60094 20700.00000 0 7918605.146 7388020.332 -23045340.756 10 0 60094 21600.00000 0 5891510.447 9390773.100 -22928650.283 10 0 60094 22500.00000 0 4045243.797 11505039.361 -22364594.067 10 0 60094 23400.00000 0 2418801.855 13672421.287 -21364454.678 10 0 60094 24300.00000 0 1039782.781 15829406.472 -19948025.702 10 0 60094 25200.00000 0 -76536.531 17909898.589 -18143199.808 10 0 60094 26100.00000 0 -927591.137 19847867.660 -15985398.756 10 0 60094 27000.00000 0 -1523373.671 21580008.265 -13516858.364 10 0 60094 27900.00000 0 -1885745.137 23048294.243 -10785784.140 10 0 60094 28800.00000 0 -2047243.588 24202323.462 -7845395.671 10 0 60094 29700.00000 0 -2049444.278 25001355.709 -4752879.646 10 0 60094 30600.00000 0 -1940943.302 25415960.199 -1568272.824 10 0 60094 31500.00000 0 -1775051.850 25429205.962 1646702.793 10 0 60094 32400.00000 0 -1607299.628 25037347.785 4829829.914 10 0 60094 33300.00000 0 -1492853.127 24249981.446 7919588.453 10 0 60094 34200.00000 0 -1483957.189 23089663.976 10856328.335 10 0 60094 35100.00000 0 -1627506.613 21591016.472 13583401.351 10 0 60094 36000.00000 0 -1962848.567 19799347.934 16048231.964 10 0 60094 36900.00000 0 -2519906.629 17768857.671 18203308.435 10 0 60094 37800.00000 0 -3317703.783 15560490.531 20007077.304 10 0 60094 38700.00000 0 -4363345.378 13239532.684 21424726.161 10 0 60094 39600.00000 0 -5651504.311 10873045.834 22428841.502 10 0 60094 40500.00000 0 -7164430.531 8527243.866 22999930.523 10 0 60094 41400.00000 0 -8872485.907 6264918.091 23126797.778 10 0 60094 42300.00000 0 -10735184.424 4143015.373 22806769.729 10 0 60094 43200.00000 0 -12702697.260 2210467.405 22045762.446 10 0 60094 44100.00000 0 -14717763.434 506359.659 20858189.985 10 0 60094 45000.00000 0 -16717929.800 -941484.762 19266713.421 10 0 60094 45900.00000 0 -18638030.279 -2117447.498 17301833.059 10 0 60094 46800.00000 0 -20412803.515 -3018543.604 15001329.038 10 0 60094 47700.00000 0 -21979541.466 -3654317.344 12409558.440 10 0 60094 48600.00000 0 -23280658.942 -4046207.858 9576619.915 10 0 60094 49500.00000 0 -24266076.225 -4226409.618 6557399.805 10 0 60094 50400.00000 0 -24895313.466 -4236274.101 3410516.716 10 0 60094 51300.00000 0 -25139206.720 -4124319.061 197184.158 10 0 60094 52200.00000 0 -24981170.647 -3943929.156 -3019986.692 10 0 60094 53100.00000 0 -24417951.647 -3750845.732 -6178220.007 10 0 60094 54000.00000 0 -23459836.744 -3600553.460 -9215818.622 10 0 60094 54900.00000 0 -22130306.844 -3545676.732 -12073391.406 10 0 60094 55800.00000 0 -20465147.121 -3633498.987 -14695038.310 10 0 60094 56700.00000 0 -18511050.992 -3903713.197 -17029467.493 10 0 60094 57600.00000 0 -16323776.346 -4386501.985 -19031020.313 10 0 60094 58500.00000 0 -13965932.315 -5101031.546 -20660582.059 10 0 60094 59400.00000 0 -11504490.967 -6054425.481 -21886359.039 10 0 60094 60300.00000 0 -9008130.094 -7241263.572 -22684505.810 10 0 60094 61200.00000 0 -6544520.402 -8643627.563 -23039589.853 10 0 60094 62100.00000 0 -4177672.291 -10231692.102 -22944884.818 10 0 60094 63000.00000 0 -1965454.356 -11964835.373 -22402487.344 10 0 60094 63900.00000 0 42612.262 -13793221.480 -21423256.362 10 0 60094 64800.00000 0 1807192.014 -15659786.594 -20026577.614 10 0 60094 65700.00000 0 3300530.237 -17502543.796 -18239959.767 10 0 60094 66600.00000 0 4507349.610 -19257108.375 -16098471.902 10 0 60094 67500.00000 0 5425213.395 -20859336.433 -13644035.249 10 0 60094 68400.00000 0 6064343.922 -22247965.507 -10924584.772 10 0 60094 69300.00000 0 6446907.759 -23367146.409 -7993118.556 10 0 60094 70200.00000 0 6605801.437 -24168760.782 -4906654.828 10 0 60094 71100.00000 0 6582992.161 -24614428.461 -1725117.841 10 0 60094 72000.00000 0 6427486.122 -24677122.302 1489825.129 10 0 60094 72900.00000 0 6193011.923 -24342324.931 4675953.055 10 0 60094 73800.00000 0 5935517.759 -23608681.208 7771684.042 10 0 60094 74700.00000 0 5710587.921 -22488121.204 10717249.615 10 0 60094 75600.00000 0 5570886.770 -21005450.259 13455829.060 10 0 60094 76500.00000 0 5563736.519 -19197424.371 15934623.673 10 0 60094 77400.00000 0 5728929.027 -17111349.821 18105852.203 10 0 60094 78300.00000 0 6096861.900 -14803264.947 19927650.438 10 0 60094 79200.00000 0 6687075.677 -12335778.378 21364859.786 10 0 60094 80100.00000 0 7507252.526 -9775651.557 22389691.545 10 0 60094 81000.00000 0 8552718.225 -7191223.388 22982255.609 10 0 60094 81900.00000 0 9806468.986 -4649780.917 23130944.444 10 0 60094 82800.00000 0 11239723.627 -2214982.266 22832665.248 10 0 60094 83700.00000 0 12812980.420 55563.963 22092915.421 10 0 60094 84600.00000 0 14477537.536 2112464.511 20925698.779 10 0 60094 85500.00000 0 16177416.902 3916363.951 19353282.334 10 0 60095 0.00000 0 17851614.252 5439348.586 17405796.250 10 0 60095 900.00000 0 19436585.182 6665873.847 15120680.909 10 0 60095 1800.00000 0 20868863.152 7593173.608 12541991.794 10 0 60095 2700.00000 0 22087704.123 8231135.589 9719569.552 10 0 60095 3600.00000 0 23037644.860 8601644.320 6708091.605 10 0 60095 4500.00000 0 23670867.501 8737418.467 3566021.181 10 0 60095 5400.00000 0 23949268.983 8680390.060 354473.387 10 0 60095 6300.00000 0 23846145.547 8479693.245 -2863979.679 10 0 60095 7200.00000 0 23347418.228 8189347.627 -6026540.812 10 0 60095 8100.00000 0 22452344.476 7865735.120 -9071431.115 10 0 60095 9000.00000 0 21173682.810 7564978.832 -11939118.758 10 0 60095 9900.00000 0 19537301.119 7340337.487 -14573506.669 10 0 60095 10800.00000 0 17581243.386 7239728.575 -16923053.546 10 0 60095 11700.00000 0 15354293.243 7303488.225 -18941803.853 10 0 60095 12600.00000 0 12914094.864 7562465.511 -20590304.605 10 0 60095 13500.00000 0 10324910.951 8036534.338 -21836389.370 10 0 60095 14400.00000 0 7655113.246 8733587.670 -22655813.121 10 0 60095 15300.00000 0 4974512.443 9649057.668 -23032725.061 10 0 60095 16200.00000 0 2351640.910 10765982.279 -22959970.360 10 0 60095 17100.00000 0 -148896.855 12055614.963 -22439215.601 10 0 60095 18000.00000 0 -2468894.536 13478550.741 -21480896.688 10 0 60095 18900.00000 0 -4558732.001 14986319.553 -20103991.754 10 0 60095 19800.00000 0 -6379190.570 16523378.093 -18335625.286 10 0 60095 20700.00000 0 -7902821.575 18029414.531 -16210513.079 10 0 60095 21600.00000 0 -9114813.755 19441867.667 -13770260.767 10 0 60095 22500.00000 0 -10013326.555 20698553.543 -11062531.367 10 0 60095 23400.00000 0 -10609279.134 21740288.544 -8140099.715 10 0 60095 24300.00000 0 -10925607.844 22513398.925 -5059813.522 10 0 60095 25200.00000 0 -10996027.039 22972012.099 -1881482.220 10 0 60095 26100.00000 0 -10863348.507 23080034.808 1333284.189 10 0 60095 27000.00000 0 -10577432.715 22812736.917 4522263.657 10 0 60095 27900.00000 0 -10192859.694 22157876.398 7623815.346 10 0 60095 28800.00000 0 -9766418.318 21116320.336 10578055.337 10 0 60095 29700.00000 0 -9354519.400 19702137.666 13327993.415 10 0 60095 30600.00000 0 -9010640.489 17942160.979 15820610.721 10 0 60095 31500.00000 0 -8782908.250 15875036.225 18007859.439 10 0 60095 32400.00000 0 -8711918.191 13549799.637 19847567.452 10 0 60095 33300.00000 0 -8828881.469 11024039.994 21304232.659 10 0 60095 34200.00000 0 -9154175.045 8361720.721 22349693.595 10 0 60095 35100.00000 0 -9696355.080 5630749.722 22963664.982 10 0 60095 36000.00000 0 -10451674.838 2900394.773 23134128.948 10 0 60095 36900.00000 0 -11404128.100 238648.571 22857574.710 10 0 60095 37800.00000 0 -12526017.982 -2290350.327 22139081.765 10 0 60095 38700.00000 0 -13779029.851 -4628736.268 20992243.871 10 0 60095 39600.00000 0 -15115766.425 -6727076.508 19438933.557 10 0 60095 40500.00000 0 -16481684.002 -8546183.812 17508909.416 10 0 60095 41400.00000 0 -17817351.803 -10058506.535 15239271.140 10 0 60095 42300.00000 0 -19060942.263 -11249037.643 12673770.121 10 0 60095 43200.00000 0 -20150849.571 -12115703.529 9861986.343 10 0 60095 44100.00000 0 -21028327.221 -12669214.735 6858385.276 10 0 60095 45000.00000 0 -21640033.326 -12932383.067 3721271.448 10 0 60095 45900.00000 0 -21940375.096 -12938932.268 511658.057 10 0 60095 46800.00000 0 -21893551.373 -12731851.218 -2707925.509 10 0 60095 47700.00000 0 -21475204.045 -12361358.732 -5874664.332 10 0 60095 48600.00000 0 -20673605.329 -11882566.353 -8926701.428 10 0 60095 49500.00000 0 -19490327.466 -11352939.202 -11804367.820 10 0 60095 50400.00000 0 -17940363.604 -10829664.358 -14451372.810 10 0 60095 51300.00000 0 -16051692.386 -10367040.701 -16815928.763 10 0 60095 52200.00000 0 -13864303.038 -10014003.568 -18851786.033 10 0 60095 53100.00000 0 -11428721.353 -9811891.803 -20519155.664 10 0 60095 54000.00000 0 -8804098.682 -9792554.211 -21785500.219 10 0 60095 54900.00000 0 -6055945.020 -9976877.442 -22626176.184 10 0 60095 55800.00000 0 -3253602.586 -10373798.749 -23024914.916 10 0 60095 56700.00000 0 -467567.171 -10979845.739 -22974132.866 10 0 60095 57600.00000 0 2233229.341 -11779222.135 -22475065.735 10 0 60095 58500.00000 0 4784060.715 -12744434.838 -21537725.040 10 0 60095 59400.00000 0 7126861.685 -13837434.162 -20180679.507 10 0 60095 60300.00000 0 9212394.824 -15011217.234 -18430667.278 10 0 60095 61200.00000 0 11002039.773 -16211824.875 -16322048.414 10 0 60095 62100.00000 0 12469132.288 -17380645.929 -13896110.250 10 0 60095 63000.00000 0 13599800.094 -18456930.420 -11200240.969 10 0 60095 63900.00000 0 14393264.025 -19380404.624 -8286989.124 10 0 60095 64800.00000 0 14861595.637 -20093877.583 -5213028.783 10 0 60095 65700.00000 0 15028945.271 -20545729.594 -2038051.398 10 0 60095 66600.00000 0 14930276.404 -20692178.865 1176393.413 10 0 60095 67500.00000 0 14609662.404 -20499232.436 4368085.581 10 0 60095 68400.00000 0 14118219.394 -19944241.117 7475328.126 10 0 60095 69300.00000 0 13511763.367 -19016995.037 10438124.230 10 0 60095 70200.00000 0 12848290.337 -17720315.536 13199316.415 10 0 60095 71100.00000 0 12185384.818 -16070119.951 15705667.544 10 0 60095 72000.00000 0 11577664.234 -14094957.249 17908864.757 10 0 60095 72900.00000 0 11074364.721 -11835033.865 19766429.160 10 0 60095 73800.00000 0 10717167.619 -9340769.353 21242515.888 10 0 60095 74700.00000 0 10538355.917 -6670940.292 22308591.066 10 0 60095 75600.00000 0 10559376.393 -3890487.041 22943974.230 10 0 60095 76500.00000 0 10789866.873 -1068071.399 23136236.800 10 0 60095 77400.00000 0 11227189.322 1726516.771 22881449.329 10 0 60095 78300.00000 0 11856489.233 4424999.709 22184272.429 10 0 60095 79200.00000 0 12651280.569 6963192.190 21057888.582 10 0 60095 80100.00000 0 13574534.212 9283417.503 19523774.401 10 0 60095 81000.00000 0 14580227.149 11336660.266 17611315.503 10 0 60095 81900.00000 0 15615290.397 13084367.264 15357268.801 10 0 60095 82800.00000 0 16621876.614 14499821.120 12805079.881 10 0 60095 83700.00000 0 17539854.182 15569028.520 10004066.091 10 0 60095 84600.00000 0 18309424.136 16291084.325 7008478.875 10 0 60095 85500.00000 0 18873749.882 16677994.449 3876461.891 99